NJE980W EPKK-LGKR

Flight info

Callsign NJE980W
Flight time N/A
Altitude 41000
Route BABKO DCT NIDOK DCT PARAK DCT KOTUS DCT AKIKA DCT LIMJA N732 PITAS
Aircraft C750/M-SBDE3FGHRWXY/S

Departure

Time N/A
Airport Kraków John Paul II International Airport (EPKK)

Arrival

Time 2026-04-27 19:01
Airport Corfu Ioannis Kapodistrias International Airport (LGKR)
Time Latitude Longitude Altitude Speed Heading
2026-04-27 18:54 39.38854 20.04381 2935 ft 199 kts 303°
2026-04-27 18:55 39.39621 20.02898 2936 ft 197 kts 303°
2026-04-27 18:55 39.40370 20.01454 2908 ft 192 kts 303°
2026-04-27 18:55 39.41126 20.00003 2904 ft 195 kts 303°
2026-04-27 18:55 39.41897 19.98551 2905 ft 196 kts 306°
2026-04-27 18:56 39.42993 19.97543 2872 ft 194 kts 339°
2026-04-27 18:56 39.44171 19.97107 2895 ft 169 kts 345°
2026-04-27 18:56 39.45318 19.96683 2798 ft 173 kts 344°
2026-04-27 18:56 39.46420 19.96268 2562 ft 154 kts 344°
2026-04-27 18:57 39.47387 19.95904 2320 ft 137 kts 345°
2026-04-27 18:57 39.48271 19.95505 2104 ft 131 kts 339°
2026-04-27 18:57 39.49120 19.95071 2069 ft 141 kts 340°
2026-04-27 18:57 39.50010 19.94581 1939 ft 138 kts 337°
2026-04-27 18:58 39.50894 19.94078 1701 ft 139 kts 338°
2026-04-27 18:58 39.51484 19.93748 1537 ft 139 kts 338°
2026-04-27 18:58 39.52687 19.93170 1245 ft 135 kts 342°
2026-04-27 18:58 39.53576 19.92830 1052 ft 133 kts 346°
2026-04-27 18:59 39.54482 19.92602 867 ft 132 kts 348°
2026-04-27 18:59 39.55378 19.92393 746 ft 129 kts 348°
2026-04-27 18:59 39.56273 19.92190 591 ft 132 kts 348°
2026-04-27 18:59 39.57165 19.91983 440 ft 132 kts 348°
2026-04-27 19:00 39.58059 19.91759 281 ft 130 kts 347°
2026-04-27 19:00 39.58951 19.91531 100 ft 131 kts 348°
2026-04-27 19:00 39.59820 19.91308 23 ft 118 kts 348°
2026-04-27 19:00 39.60534 19.91123 17 ft 84 kts 349°
2026-04-27 19:01 39.60932 19.91021 17 ft 27 kts 349°
2026-04-27 19:01 39.61031 19.91035 19 ft 12 kts 51°
2026-04-27 19:01 39.61059 19.91091 19 ft 5 kts 68°
2026-04-27 19:01 39.61055 19.91113 19 ft 2 kts 112°
2026-04-27 19:02 39.61044 19.91124 19 ft 1 kts 162°
2026-04-27 19:02 39.61027 19.91130 18 ft 6 kts 165°
2026-04-27 19:02 39.61010 19.91162 18 ft 3 kts 83°
2026-04-27 19:02 39.61019 19.91213 18 ft 6 kts 80°
2026-04-27 19:03 39.61021 19.91227 18 ft 0 kts 80°